Overview Statistics Trail Chart Weather Telemetry Raw packets
 

This is the latest recevied weather packets stored in our database for station/object HOWARD. If no packets are shown the sender has not sent any weather packets the latest 10 day(s).

<< 57 58 59 60 61 62 63 >>
Time Temp. Humidity Pressure Rain* Wind** Luminosity Snow
1787845475 16.67° C 31% 1018.9 hPa 0 mm - - -
1787844876 17.22° C 31% 1018.9 hPa 0 mm - - -
1787844276 16.67° C 31% 1018.9 hPa 0 mm - - -
1787843675 16.11° C 32% 1018.8 hPa 0 mm - - -
1787843075 16.11° C 32% 1018.9 hPa 0 mm - - -
1787842476 16.11° C 32% 1018.8 hPa 0 mm - - -
1787841875 16.11° C 31% 1018.9 hPa 0 mm - - -
1787841275 16.11° C 33% 1018.9 hPa 0 mm - - -
1787840675 16.11° C 35% 1018.9 hPa 0 mm - - -
1787840076 16.11° C 34% 1019 hPa 0 mm - - -
1787839475 15.56° C 37% 1018.9 hPa 0 mm - - -
1787838875 15.56° C 37% 1019.1 hPa 0 mm - - -
1787838275 16.11° C 35% 1018.9 hPa 0 mm - - -
1787837714 16.11° C 37% 1019 hPa 0 mm - - -
1787837675 16.11° C 37% 1019 hPa 0 mm - - -
1787837075 17.22° C 36% 1019 hPa 0 mm - - -
1787836475 16.11° C 36% 1019 hPa 0 mm - - -
1787835954 16.67° C 36% 1019 hPa 0 mm - - -
1787835875 16.67° C 36% 1019 hPa 0 mm - - -
1787835275 16.11° C 36% 1019 hPa 0 mm - - -
1787834675 15.56° C 37% 1019 hPa 0 mm - - -
1787834075 15° C 40% 1018.9 hPa 0 mm - - -
1787833475 15.56° C 40% 1019.4 hPa 0 mm - - -
1787832875 16.11° C 37% 1019.1 hPa 0 mm - - -
1787832275 16.11° C 40% 1019.2 hPa 0 mm - - -

* Rain latest hour (hover to see other rain measurements)
** Current wind speed in m/s (hover to see current wind gust speed)